Date,TemperatureHighF,TemperatureAvgF,TemperatureLowF,DewpointHighF,DewpointAvgF,DewpointLowF,HumidityHigh,HumidityAvg,HumidityLow,PressureMaxIn,PressureMinIn,WindSpeedMaxMPH,WindSpeedAvgMPH,GustSpeedMaxMPH,PrecipitationSumIn
2013-1-1,54.1,43.2,31.8,25.3,19.3,11.3,71,42,22,28.13,28.01,7,2,16,0.00
2013-1-2,60.0,51.8,46.1,19.1,13.8,11.2,26,22,17,28.06,27.91,10,4,18,0.00
2013-1-3,61.9,51.4,43.6,17.9,12.2,7.1,31,21,13,28.08,27.95,7,2,12,0.00
2013-1-4,64.4,49.2,37.3,19.8,12.2,6.7,40,23,13,28.15,28.03,3,0,5,0.00
2013-1-5,65.9,46.3,35.0,20.8,15.2,11.0,43,30,12,28.17,28.04,2,0,3,0.00
2013-1-6,51.2,43.5,39.8,41.2,36.1,17.5,93,76,39,28.04,27.89,4,0,5,0.04
2013-1-7,62.0,48.6,37.7,35.3,26.2,15.4,78,47,20,28.00,27.89,7,1,12,0.00
2013-1-8,72.1,58.0,41.3,34.2,28.1,18.1,46,32,23,28.00,27.92,6,1,9,0.00
2013-1-9,69.3,58.0,47.4,43.5,35.7,30.3,86,46,27,27.98,27.79,7,1,8,0.00
2013-1-10,49.2,43.6,33.0,43.2,30.6,20.3,91,62,33,27.95,27.74,7,2,11,0.01
2013-1-11,48.2,38.3,29.4,25.1,21.8,18.6,73,52,34,28.07,27.95,6,1,12,0.00
2013-1-12,52.6,37.4,28.9,20.4,17.0,10.7,65,46,20,28.05,27.94,3,0,6,0.00
2013-1-13,52.1,38.4,29.7,20.0,15.2,4.9,58,40,23,28.07,27.92,3,0,9,0.00
2013-1-14,47.1,38.3,31.6,5.7,1.2,-2.0,29,21,14,28.22,28.04,8,4,14,0.00
2013-1-15,57.7,44.2,31.6,22.4,12.4,1.8,45,28,20,28.35,28.21,7,1,12,0.00
2013-1-16,64.5,54.0,40.6,25.4,20.3,16.0,43,28,19,28.26,28.03,9,4,17,0.00
2013-1-17,67.8,60.4,56.2,17.5,13.3,9.6,20,16,11,28.07,27.97,10,5,22,0.00
2013-1-18,68.5,58.3,50.6,26.2,14.1,10.5,29,18,12,28.06,27.96,6,2,10,0.00
2013-1-19,70.4,59.7,51.8,17.9,12.0,6.9,22,15,10,28.08,27.97,6,2,11,0.00
2013-1-20,70.6,58.6,51.0,15.3,9.6,4.6,20,14,10,28.04,27.92,6,1,13,0.00
2013-1-21,73.0,61.4,52.0,19.3,8.8,1.9,26,13,7,27.99,27.91,7,2,17,0.00
2013-1-22,73.2,59.2,48.9,17.2,10.6,3.6,25,15,10,27.99,27.90,3,1,13,0.00
2013-1-23,74.0,59.2,49.1,43.6,26.3,13.4,72,30,18,27.97,27.87,2,0,7,0.00
2013-1-24,58.8,52.7,47.8,54.2,49.2,43.8,96,88,73,28.04,27.93,1,0,5,0.55
2013-1-25,56.6,54.4,52.6,50.4,48.1,44.8,89,79,69,28.03,27.83,2,1,9,0.04
2013-1-26,68.1,57.9,52.2,52.9,50.6,49.2,91,78,55,27.83,27.72,3,0,6,0.03
2013-1-27,56.3,47.9,36.6,49.9,38.5,26.9,93,72,42,27.89,27.77,3,1,10,0.01
2013-1-28,55.7,41.7,32.8,29.3,26.8,24.0,79,57,32,28.08,27.89,7,1,14,0.00
2013-1-29,61.9,45.5,33.4,35.3,30.2,25.3,74,57,33,28.10,27.98,2,0,7,0.00
2013-1-30,73.0,51.6,37.8,39.7,34.6,31.6,80,56,23,28.20,28.07,2,0,4,0.00
2013-1-31,74.2,57.6,43.9,38.0,33.5,31.4,63,42,24,28.12,27.97,5,1,10,0.00
2013-2-1,76.9,59.3,45.1,41.7,35.0,31.2,59,42,23,28.04,27.95,2,0,4,0.00
2013-2-2,71.7,60.2,51.8,48.0,37.1,31.7,85,45,26,28.07,27.98,3,0,10,0.03
2013-2-3,75.2,58.8,48.5,46.2,38.4,24.0,77,50,20,28.02,27.84,3,0,7,0.01
2013-2-4,77.2,58.6,47.6,40.7,29.9,23.7,55,36,15,27.93,27.81,4,1,8,0.00
2013-2-5,67.2,52.2,42.5,47.6,38.2,26.6,90,61,40,27.90,27.79,3,0,5,0.00
2013-2-6,68.8,51.3,37.9,45.6,39.3,32.7,91,68,30,27.95,27.84,3,0,6,0.00
2013-2-7,61.3,47.3,35.1,45.6,37.3,26.4,77,69,53,27.98,27.80,4,1,7,0.00
2013-2-8,48.6,41.1,32.3,38.8,34.8,29.9,92,79,52,27.80,27.70,6,1,10,0.06
2013-2-9,54.7,41.0,30.1,35.0,30.5,27.3,92,69,36,27.97,27.79,3,1,8,0.00
2013-2-10,56.4,42.0,29.8,38.1,32.9,26.4,88,72,43,27.97,27.85,4,0,6,0.00
2013-2-11,58.5,43.8,30.2,33.1,18.5,6.6,89,44,16,28.12,27.93,6,1,13,0.00
2013-2-12,66.2,46.5,31.2,28.9,15.6,9.3,43,31,14,28.22,28.08,3,0,7,0.00
2013-2-13,73.0,53.2,37.4,35.7,21.7,16.0,45,31,13,28.14,27.97,4,0,8,0.00
2013-2-14,73.3,58.5,40.0,31.0,24.2,20.6,50,29,16,28.05,27.93,6,2,13,0.00
2013-2-15,73.6,63.6,56.9,34.2,22.1,16.0,29,21,13,28.07,28.00,7,3,15,0.00
2013-2-16,76.6,62.7,46.5,25.7,19.2,15.9,32,19,12,28.05,27.82,4,1,9,0.00
2013-2-17,73.0,53.9,40.4,45.3,28.5,16.3,79,41,18,27.85,27.72,3,1,8,0.00
2013-2-18,63.2,48.7,35.9,43.6,38.8,30.9,88,71,42,27.90,27.76,5,1,9,0.00
2013-2-19,50.5,45.4,38.5,41.8,38.4,35.8,92,77,57,27.81,27.55,4,2,10,0.14
2013-2-20,56.9,41.3,32.7,36.6,28.8,24.6,92,64,32,27.87,27.54,6,1,12,0.00
2013-2-21,58.6,42.8,30.1,31.9,25.8,18.0,79,55,22,28.00,27.85,7,1,12,0.00
2013-2-22,67.0,47.5,33.2,31.0,26.8,20.6,72,49,20,28.07,27.96,3,0,8,0.00
2013-2-23,67.9,50.4,37.3,37.3,29.8,25.6,65,47,29,28.03,27.76,6,1,10,0.00
2013-2-24,61.2,50.4,41.1,31.5,8.4,-0.8,55,19,11,28.08,27.89,11,4,21,0.00
2013-2-25,69.2,49.5,34.8,26.5,16.2,3.2,45,28,15,28.09,27.91,3,0,7,0.00
2013-2-26,69.5,53.8,37.6,33.4,18.1,6.8,45,27,13,28.01,27.86,9,2,13,0.00
2013-2-27,68.7,55.9,45.9,18.7,11.2,5.9,23,17,12,28.16,28.01,7,2,15,0.00
2013-2-28,75.3,58.8,45.5,19.7,11.5,6.8,24,16,9,28.21,28.11,5,1,9,0.00
2013-3-1,81.0,65.0,51.3,23.3,19.8,11.7,28,18,11,28.21,28.02,6,2,12,0.00
2013-3-2,80.7,63.6,48.7,35.0,25.6,20.4,40,25,13,28.08,27.91,3,0,8,0.00
2013-3-3,71.3,59.4,47.4,41.7,33.6,23.0,76,39,24,27.95,27.77,6,1,15,0.00
2013-3-4,71.9,56.2,44.0,47.2,42.1,36.6,83,61,37,27.94,27.83,3,0,11,0.00
2013-3-5,66.5,52.1,41.6,49.5,44.0,38.6,90,75,42,27.94,27.82,4,1,9,0.00
2013-3-6,57.8,50.1,44.9,44.6,42.2,40.0,90,75,56,27.97,27.83,3,1,8,0.00
2013-3-7,54.8,48.6,44.2,46.1,42.0,35.8,94,79,53,27.84,27.67,4,1,10,0.11
2013-3-8,53.2,44.5,36.6,41.7,39.2,34.6,95,82,56,27.87,27.63,5,0,10,0.64
2013-3-9,64.7,49.4,39.2,41.9,37.1,29.6,92,66,30,28.09,27.87,6,1,10,0.00
2013-3-10,73.6,56.1,37.9,33.2,23.6,16.2,76,35,12,28.15,28.02,7,2,16,0.00
2013-3-11,80.2,59.4,42.3,45.9,27.1,20.1,49,31,14,28.06,27.88,3,0,10,0.00
2013-3-12,85.8,65.4,48.3,42.5,30.8,24.1,50,30,11,27.96,27.84,3,0,9,0.00
2013-3-13,91.0,69.2,52.8,41.1,31.9,25.3,42,27,12,27.97,27.85,4,1,6,0.00
2013-3-14,91.0,71.3,56.0,43.5,36.0,29.0,43,29,14,27.92,27.82,3,0,6,0.00
2013-3-15,86.1,67.9,53.7,44.9,37.0,27.5,53,35,15,27.85,27.74,5,1,10,0.00
2013-3-16,84.8,65.8,50.4,38.9,31.3,17.1,50,31,9,27.78,27.67,5,1,11,0.00
2013-3-17,82.3,65.6,52.6,43.3,35.1,26.9,53,34,15,27.79,27.70,6,1,12,0.00
2013-3-18,73.3,56.3,43.0,49.5,37.7,23.1,86,51,33,27.91,27.77,3,0,7,0.00
2013-3-19,78.1,61.1,47.0,47.1,41.2,31.9,88,52,26,27.93,27.82,4,1,12,0.00
2013-3-20,76.3,61.3,51.2,48.3,42.9,37.8,64,52,33,27.92,27.79,3,0,9,0.00
2013-3-21,79.4,62.4,52.0,45.9,38.4,25.6,67,44,17,27.79,27.61,5,1,9,0.00
2013-3-22,81.7,59.2,42.2,36.9,27.0,-1.8,72,35,5,27.77,27.64,7,1,14,0.00
2013-3-23,56.6,54.0,46.6,39.7,36.8,19.7,54,52,34,27.84,27.77,0,0,1,0.00
2013-3-24,82.4,62.4,45.8,40.6,29.1,15.7,55,32,11,27.85,27.71,4,1,7,0.00
2013-3-25,79.0,60.7,45.5,41.7,34.1,25.6,61,39,19,27.80,27.70,4,0,8,0.00
2013-3-26,70.6,51.4,44.3,44.3,37.1,34.2,68,59,34,27.78,27.75,2,0,4,0.00
2013-3-27,71.4,57.6,46.2,49.5,44.2,39.1,78,63,40,27.87,27.74,3,1,8,0.00
2013-3-28,78.1,59.5,45.1,51.9,45.3,41.0,87,63,32,27.89,27.83,4,1,12,0.00
2013-3-29,79.1,70.4,59.8,50.1,44.0,36.9,68,41,24,27.92,27.85,4,1,8,0.00
2013-3-30,78.6,62.6,51.0,49.2,42.3,33.5,82,52,20,27.92,27.83,4,1,10,0.00
2013-3-31,64.7,56.1,51.1,53.3,47.4,37.8,83,73,54,27.93,27.87,4,1,7,0.00
2013-4-1,67.5,55.3,47.6,49.1,46.2,43.6,88,73,47,28.00,27.90,3,0,8,0.00
2013-4-2,79.0,59.8,44.2,49.8,44.6,40.0,89,61,31,27.93,27.80,3,0,7,0.00
2013-4-3,85.5,65.2,48.7,47.4,39.5,32.9,68,42,19,27.91,27.80,4,1,8,0.00
2013-4-4,76.8,61.4,49.6,51.7,45.2,38.3,83,58,29,27.91,27.80,5,1,12,0.00
2013-4-5,73.7,60.8,48.2,51.9,45.2,32.3,88,60,31,27.89,27.79,4,1,9,0.00
2013-4-6,78.4,61.6,47.0,44.5,38.7,34.8,69,45,23,27.89,27.78,5,1,14,0.00
2013-4-7,81.8,61.7,50.1,47.1,37.0,30.6,63,43,16,27.81,27.63,5,1,8,0.00
2013-4-8,61.0,53.8,48.3,47.4,34.8,23.8,88,51,33,27.68,27.49,11,2,15,0.00
2013-4-9,74.1,55.7,43.0,34.1,25.7,18.9,56,35,13,27.88,27.68,6,1,10,0.00
2013-4-10,57.7,55.6,54.4,26.4,23.5,20.1,33,29,23,27.89,27.88,3,1,5,0.00
2013-4-13,77.3,60.7,46.9,52.7,46.7,39.7,81,62,35,27.70,27.60,4,1,7,0.00
2013-4-14,68.9,57.6,51.7,51.9,48.7,46.8,85,73,50,27.68,27.59,4,1,9,0.00
2013-4-15,61.8,54.4,48.5,47.8,46.4,42.6,87,75,58,27.69,27.63,5,2,11,0.00
2013-4-16,62.8,52.8,44.5,42.8,30.1,20.5,81,45,23,27.86,27.67,9,3,18,0.00
2013-4-17,71.4,55.1,40.5,26.5,22.2,17.3,49,30,13,28.02,27.86,6,2,12,0.00
2013-4-18,75.5,60.6,44.3,27.2,15.3,6.4,42,19,8,28.09,27.98,7,2,14,0.00
2013-4-19,87.3,65.4,47.0,35.9,20.3,10.1,40,20,7,28.04,27.82,4,1,7,0.00
2013-4-20,91.0,71.2,53.8,39.4,31.0,22.7,38,25,9,27.84,27.69,6,2,13,0.00
2013-4-21,87.2,69.4,52.4,44.0,35.0,29.7,44,30,14,27.81,27.73,5,1,8,0.00
2013-4-22,83.1,64.5,49.0,50.7,41.5,31.6,72,44,31,27.81,27.67,4,1,8,0.00
2013-4-23,89.1,66.2,45.9,50.0,37.2,22.1,90,49,10,27.77,27.66,6,2,12,0.00
2013-4-24,53.3,53.3,53.2,49.2,48.9,48.5,86,85,84,27.81,27.80,1,0,2,0.00
2013-4-25,72.4,59.9,51.1,50.6,47.0,42.4,86,65,40,27.95,27.78,4,1,9,0.00
2013-4-26,83.8,63.5,46.0,50.9,45.4,40.2,83,56,26,27.99,27.90,4,1,9,0.00
2013-4-27,96.6,72.2,51.9,51.6,42.5,30.0,65,39,10,27.98,27.80,3,1,9,0.00
2013-4-28,93.7,74.0,56.7,55.5,42.2,32.2,51,33,19,27.82,27.64,4,1,13,0.00
2013-4-29,92.3,70.4,50.4,53.0,43.5,30.8,74,41,19,27.68,27.55,3,0,8,0.00
2013-4-30,77.2,61.5,52.3,54.5,51.2,48.1,92,71,43,27.70,27.59,5,1,10,0.00
2013-5-1,89.4,70.2,49.8,52.0,24.7,-6.4,91,38,4,27.90,27.71,9,2,21,0.00
2013-5-2,85.7,75.3,67.5,14.7,2.3,-7.1,11,6,3,28.01,27.87,10,4,25,0.00
2013-5-3,95.0,74.4,56.7,28.6,15.0,6.0,23,12,5,27.87,27.62,5,1,13,0.00
2013-5-4,81.0,65.8,54.0,50.6,35.2,14.2,78,36,16,27.63,27.51,5,1,12,0.00
2013-5-5,58.6,55.3,52.2,49.0,47.4,46.3,84,75,65,27.76,27.61,5,2,13,0.00
2013-5-6,62.1,55.1,50.8,52.5,48.4,44.4,94,79,60,27.85,27.71,4,1,10,0.31
2013-5-7,65.9,56.7,49.0,50.1,47.6,45.7,93,73,50,27.90,27.82,4,1,9,0.09
2013-5-8,71.6,59.4,51.5,51.0,47.5,44.6,85,66,45,27.93,27.86,5,1,14,0.00
2013-5-9,76.8,61.0,46.7,54.8,48.1,42.5,86,65,42,27.93,27.82,4,0,9,0.00
2013-5-10,93.4,72.3,53.7,53.4,48.5,39.6,78,49,16,27.91,27.80,4,1,12,0.00
2013-5-11,100.0,78.8,61.4,50.9,44.5,37.1,55,33,12,27.89,27.78,4,1,10,0.00
2013-5-12,98.5,81.8,65.9,52.4,43.0,35.0,44,28,13,27.87,27.74,5,1,15,0.00
2013-5-13,99.8,81.9,64.1,52.0,40.9,34.3,40,25,12,27.80,27.70,4,1,17,0.00
2013-5-14,86.4,72.2,59.9,49.7,40.0,27.9,61,33,13,27.77,27.68,6,1,13,0.00
2013-5-15,81.9,66.9,52.6,56.1,49.3,41.2,70,55,38,27.82,27.73,4,1,11,0.00
2013-5-16,77.9,63.1,49.2,56.6,51.0,44.6,87,67,41,27.78,27.68,4,1,10,0.00
2013-5-17,75.9,62.4,50.3,53.7,51.1,47.3,93,69,42,27.81,27.72,5,1,11,0.00
2013-5-18,83.9,66.8,48.4,53.2,43.2,27.2,88,49,20,27.86,27.76,4,1,10,0.00
2013-5-19,94.9,71.5,51.6,49.4,32.8,24.5,42,26,11,27.81,27.67,5,1,13,0.00
2013-5-20,95.4,76.3,58.5,48.1,34.5,23.4,40,24,9,27.77,27.67,7,2,18,0.00
2013-5-21,88.3,72.4,58.2,53.2,45.4,36.0,69,40,20,27.73,27.61,4,1,16,0.00
2013-5-22,77.8,64.3,51.7,54.2,49.5,42.7,80,61,35,27.64,27.56,5,1,13,0.00
2013-5-23,71.9,60.3,46.4,50.0,43.4,29.6,72,54,44,27.77,27.64,4,1,13,0.00
2013-5-24,74.6,60.3,45.4,52.3,44.7,35.6,79,58,38,27.81,27.74,4,1,12,0.00
2013-5-25,74.2,60.6,46.7,51.5,46.7,42.1,86,63,38,27.83,27.78,4,1,14,0.00
2013-5-26,77.0,62.4,48.2,53.1,47.8,42.6,82,61,37,27.85,27.79,4,1,12,0.00
2013-5-27,85.9,67.1,50.6,50.8,42.3,28.1,83,48,17,27.82,27.68,7,1,21,0.00
2013-5-28,82.4,68.5,57.6,53.5,47.7,41.0,70,49,31,27.70,27.58,10,2,19,0.00
2013-5-29,91.6,73.1,54.1,51.4,43.5,30.8,64,38,15,27.65,27.51,6,1,14,0.00
2013-5-30,93.8,74.3,56.7,55.9,45.9,36.8,59,39,17,27.68,27.57,4,1,9,0.00
2013-5-31,100.5,75.0,56.0,59.3,46.3,30.7,62,40,9,27.70,27.60,6,1,14,0.00
2013-6-1,104.7,82.3,62.7,55.3,44.6,31.1,58,33,10,27.67,27.52,5,1,14,0.00
2013-6-2,90.1,71.7,57.2,61.5,55.4,44.9,86,59,33,27.61,27.51,4,1,11,0.00
2013-6-3,83.1,66.8,56.9,60.0,55.4,52.8,92,69,42,27.69,27.59,4,1,9,0.00
2013-6-4,84.4,67.1,56.8,59.5,54.3,51.8,89,67,34,27.78,27.69,4,1,14,0.00
2013-6-5,87.2,67.9,51.1,58.8,53.2,46.9,88,63,34,27.80,27.69,3,1,7,0.00
2013-6-6,88.4,70.1,53.9,61.0,54.7,49.1,85,61,38,27.76,27.65,3,1,7,0.00
2013-6-7,91.0,72.9,54.5,62.0,56.4,50.4,87,60,35,27.72,27.56,3,0,8,0.00
2013-6-8,92.9,72.4,55.4,61.9,55.9,51.9,89,61,27,27.69,27.58,6,1,11,0.00
2013-6-9,89.7,69.8,53.8,60.9,51.9,35.8,94,62,16,27.71,27.64,5,1,11,0.00
2013-6-10,80.1,66.7,55.2,56.1,52.6,47.7,90,64,35,27.75,27.68,4,1,13,0.00
2013-6-11,95.8,73.2,54.7,57.7,51.2,42.9,83,51,18,27.77,27.68,3,0,9,0.00
2013-6-12,85.9,71.1,56.6,60.2,53.5,47.5,79,56,28,27.79,27.71,6,1,13,0.00
2013-6-13,89.5,71.6,53.9,58.8,53.8,49.1,89,58,28,27.80,27.69,2,0,8,0.00
2013-6-14,88.5,70.5,53.4,55.3,47.0,37.6,71,46,24,27.72,27.63,5,1,15,0.00
2013-6-15,83.0,66.5,50.3,57.3,48.5,43.2,89,57,26,27.79,27.68,4,1,11,0.00
2013-6-16,91.5,70.7,52.2,55.7,47.8,39.2,62,46,26,27.84,27.74,3,0,10,0.00
2013-6-17,93.1,75.9,57.3,54.1,44.1,35.7,54,34,20,27.78,27.66,3,0,8,0.00
2013-6-18,88.6,73.1,57.5,52.9,44.1,33.6,64,37,23,27.70,27.61,4,1,11,0.00
2013-6-19,89.5,71.9,55.0,51.2,34.5,16.9,71,34,8,27.68,27.60,5,1,17,0.00
2013-6-20,91.6,70.9,50.8,53.2,33.6,18.6,35,26,14,27.68,27.60,4,0,9,0.00
2013-6-21,88.3,72.2,56.2,53.5,41.3,26.4,58,34,22,27.69,27.62,4,1,12,0.00
2013-6-22,88.9,72.0,56.2,57.8,49.8,40.0,64,47,33,27.70,27.60,3,1,7,0.00
2013-6-23,81.4,66.9,55.5,57.2,53.1,47.7,81,63,39,27.67,27.58,5,1,13,0.00
2013-6-24,69.3,62.6,55.7,57.9,55.2,52.1,92,77,63,27.77,27.63,3,0,8,0.00
2013-6-25,88.5,70.4,53.9,62.5,57.2,51.1,92,66,41,27.81,27.72,4,0,9,0.00
2013-6-26,96.3,79.4,63.1,62.3,58.5,54.3,75,52,30,27.78,27.71,4,1,9,0.00
2013-6-27,98.4,82.5,66.4,62.7,57.5,53.9,66,46,24,27.82,27.76,4,1,11,0.00
2013-6-28,103.7,85.3,68.8,63.9,56.8,51.7,59,41,19,27.80,27.66,4,1,11,0.00
2013-6-29,110.5,88.9,70.7,61.7,54.0,48.3,52,33,16,27.69,27.54,2,0,7,0.00
2013-6-30,109.5,89.1,73.7,62.5,54.1,45.2,64,33,14,27.60,27.50,4,0,9,0.00
2013-7-1,96.6,81.5,67.2,62.7,57.1,49.5,69,47,25,27.69,27.57,5,1,12,0.00
2013-7-2,101.3,82.2,68.2,60.2,54.9,49.4,64,41,19,27.75,27.68,4,1,11,0.00
2013-7-3,101.6,80.8,66.2,64.1,56.2,52.0,73,46,25,27.70,27.57,3,0,8,0.00
2013-7-4,99.6,80.2,64.9,61.5,54.3,44.2,66,44,25,27.63,27.52,3,1,11,0.00
2013-7-5,93.6,75.8,62.5,62.4,55.7,46.5,74,52,31,27.62,27.54,4,1,8,0.00
2013-7-6,97.3,77.5,63.1,61.9,57.1,52.4,76,53,23,27.62,27.52,4,1,8,0.00
2013-7-7,100.4,79.7,62.2,61.8,53.6,42.2,74,46,17,27.66,27.56,4,0,11,0.00
2013-7-8,105.4,82.4,63.2,54.6,44.6,37.0,52,30,12,27.75,27.66,4,1,11,0.00
2013-7-9,105.1,85.7,69.6,55.1,43.8,32.1,43,25,10,27.77,27.72,4,1,12,0.00
2013-7-10,91.1,77.2,67.7,61.8,52.6,41.6,66,43,29,27.77,27.69,2,0,6,0.00
2013-7-11,79.3,71.5,63.8,63.2,60.3,53.6,86,69,53,27.78,27.69,4,0,10,0.02
2013-7-12,91.7,76.2,62.7,64.3,58.6,52.6,88,59,30,27.75,27.65,4,1,11,0.00
2013-7-13,98.7,79.5,62.5,60.3,52.2,45.5,63,42,19,27.75,27.64,2,0,8,0.00
2013-7-14,100.0,81.8,64.2,57.4,49.6,42.1,51,35,19,27.72,27.60,3,0,9,0.00
2013-7-15,96.4,79.3,63.4,53.5,46.1,34.5,60,34,15,27.67,27.58,5,1,13,0.00
2013-7-16,92.9,73.1,54.4,46.7,40.1,27.9,68,35,11,27.80,27.66,4,1,12,0.00
2013-7-17,97.0,77.1,57.4,46.2,37.4,27.8,43,26,12,27.84,27.75,3,0,13,0.00
2013-7-18,100.3,79.4,61.7,53.6,41.3,28.4,44,27,15,27.80,27.65,3,0,10,0.00
2013-7-19,100.9,79.7,62.9,56.1,48.4,37.9,55,35,20,27.69,27.59,3,0,12,0.00
2013-7-20,96.9,76.7,60.9,65.3,58.0,49.3,71,54,33,27.67,27.56,4,0,13,0.00
2013-7-21,84.7,74.4,66.1,64.3,60.9,59.0,79,64,46,27.75,27.61,3,0,6,0.00
2013-7-22,88.8,77.1,66.4,64.7,62.2,59.2,88,63,42,27.78,27.70,6,1,12,0.00
2013-7-23,93.9,77.1,64.0,63.4,59.1,54.6,81,57,33,27.81,27.71,4,1,12,0.00
2013-7-24,97.3,78.0,63.5,64.7,57.0,53.8,73,51,28,27.78,27.66,3,0,7,0.00
2013-7-25,98.3,78.3,61.3,63.3,57.7,52.9,77,52,29,27.80,27.70,2,0,7,0.00
2013-7-26,90.0,77.2,66.4,65.9,62.1,57.2,94,62,38,27.87,27.78,3,0,7,0.18
2013-7-27,96.6,78.5,65.4,66.0,59.4,56.9,77,55,30,27.81,27.64,4,1,10,0.00
2013-7-28,91.3,74.3,61.4,61.9,54.3,43.6,81,54,21,27.71,27.61,5,1,12,0.00
2013-7-29,88.3,70.6,54.0,58.1,51.6,46.7,83,55,28,27.84,27.71,4,1,14,0.00
2013-7-30,90.6,72.6,56.2,56.3,50.3,41.1,81,50,18,27.90,27.81,4,1,9,0.00
2013-7-31,88.5,69.9,56.0,58.6,51.0,43.2,78,53,33,27.89,27.78,5,1,11,0.00
2013-8-1,90.1,70.3,52.5,58.8,51.8,44.0,78,55,30,27.83,27.69,4,0,7,0.00
2013-8-2,87.4,70.7,54.0,57.1,51.6,46.3,82,55,27,27.77,27.69,4,0,9,0.00
2013-8-3,92.6,72.1,55.7,56.8,50.9,43.9,76,52,20,27.79,27.71,4,0,10,0.00
2013-8-4,94.0,73.2,56.7,52.6,47.1,37.8,70,45,15,27.80,27.72,3,0,10,0.00
2013-8-5,94.0,73.9,55.7,48.0,40.3,23.4,61,35,9,27.80,27.71,3,1,14,0.00
2013-8-6,90.6,71.6,53.8,49.6,40.2,27.6,56,35,12,27.83,27.75,3,1,12,0.00
2013-8-7,89.5,70.5,53.5,52.2,46.8,41.0,70,47,20,27.86,27.76,4,0,10,0.00
2013-8-8,88.3,70.2,54.9,52.8,46.4,34.4,71,47,17,27.81,27.71,5,1,11,0.00
2013-8-9,84.8,68.8,53.9,51.6,44.4,32.3,68,46,17,27.78,27.70,5,1,12,0.00
2013-8-10,88.5,69.6,54.4,57.6,48.5,41.4,63,49,32,27.82,27.75,3,0,12,0.00
2013-8-11,92.3,72.0,55.8,57.0,50.7,44.7,69,50,27,27.79,27.69,4,0,9,0.00
2013-8-12,94.9,73.6,56.6,58.3,51.0,43.0,65,48,23,27.76,27.68,3,0,10,0.00
2013-8-13,99.4,77.4,59.4,56.3,50.8,43.2,63,42,21,27.76,27.67,3,0,7,0.00
2013-8-14,88.1,75.0,68.4,53.5,48.8,42.0,49,40,27,27.71,27.64,0,0,4,0.00
2013-8-15,97.8,80.6,64.7,57.2,44.8,34.7,55,30,14,27.74,27.67,5,1,13,0.00
2013-8-16,98.8,81.4,66.3,57.4,49.5,43.3,51,34,21,27.76,27.68,4,1,11,0.00
2013-8-17,100.2,81.0,65.2,56.2,46.2,41.2,47,31,17,27.75,27.60,4,1,11,0.00
2013-8-18,103.2,81.4,65.4,62.8,48.0,41.5,56,33,19,27.70,27.57,5,1,12,0.00
2013-8-19,98.4,83.7,68.8,62.8,57.7,50.4,65,43,25,27.70,27.60,5,1,12,0.00
2013-8-20,96.3,78.0,61.7,57.4,49.8,27.7,67,43,11,27.72,27.64,4,1,12,0.00
2013-8-21,98.0,79.6,62.0,54.7,46.0,34.4,61,36,12,27.73,27.64,5,1,15,0.00
2013-8-22,98.1,80.9,64.5,54.3,45.1,35.0,62,32,12,27.73,27.60,4,1,11,0.00
2013-8-23,96.4,77.5,61.7,48.0,40.4,32.3,45,29,12,27.68,27.55,5,1,11,0.00
2013-8-24,95.2,75.7,58.6,48.8,39.5,27.5,47,31,10,27.69,27.56,4,1,11,0.00
2013-8-25,93.2,75.7,59.0,55.4,40.3,29.7,47,30,13,27.75,27.65,5,1,12,0.00
2013-8-26,94.3,78.0,63.7,64.6,51.1,33.9,72,40,27,27.76,27.63,4,1,10,0.00
2013-8-27,93.9,79.8,69.0,66.2,61.4,56.7,78,56,37,27.69,27.57,4,1,12,0.00
2013-8-28,95.8,80.6,66.7,63.8,58.1,53.3,75,50,25,27.71,27.61,6,1,14,0.00
2013-8-29,103.0,83.6,68.1,61.3,54.4,49.0,64,40,20,27.76,27.67,4,0,10,0.00
2013-8-30,95.4,82.2,70.7,67.2,60.2,49.4,68,48,38,27.78,27.70,5,1,11,0.00
2013-8-31,91.7,81.2,72.9,69.6,66.1,64.1,76,62,44,27.77,27.67,5,1,15,0.00
2013-9-1,92.0,79.4,69.6,68.8,65.4,62.5,85,64,39,27.74,27.65,5,1,16,0.00
2013-9-2,96.4,80.6,67.6,66.9,62.2,55.9,81,57,29,27.73,27.62,5,0,11,0.00
2013-9-3,97.3,81.9,69.8,62.5,57.9,55.5,69,47,26,27.71,27.63,4,1,13,0.00
2013-9-4,101.3,83.3,68.7,61.9,55.7,51.1,62,42,21,27.73,27.63,5,1,10,0.00
2013-9-5,100.5,83.7,69.0,59.1,52.8,48.2,56,37,20,27.70,27.62,4,0,11,0.00
2013-9-6,102.0,82.0,68.5,55.6,50.6,47.5,51,36,17,27.70,27.59,4,1,10,0.00
2013-9-7,80.2,74.3,71.2,48.3,44.6,40.7,38,35,28,27.67,27.65,0,0,1,0.00
2013-9-8,97.7,79.4,65.4,52.2,44.8,39.3,44,31,19,27.67,27.54,4,0,12,0.00
2013-9-9,94.9,77.4,63.9,57.6,50.0,43.3,66,41,23,27.62,27.52,2,0,10,0.00
2013-9-10,88.8,70.8,57.5,53.7,48.0,38.8,73,48,22,27.74,27.60,4,1,10,0.00
2013-9-11,88.2,70.4,56.2,57.7,52.0,47.6,74,55,29,27.80,27.72,4,0,11,0.00
2013-9-12,94.0,73.5,57.8,53.7,47.8,39.2,73,46,15,27.76,27.64,3,0,12,0.00
2013-9-13,97.9,78.1,62.6,55.6,47.6,40.0,52,36,20,27.67,27.47,2,0,11,0.00
2013-9-14,101.8,81.2,65.1,55.5,49.5,44.5,54,36,17,27.54,27.43,3,0,9,0.00
2013-9-15,71.1,70.6,70.3,49.2,47.6,46.1,46,44,42,27.51,27.49,0,0,1,0.00
2013-9-19,99.1,75.8,56.1,58.7,46.7,32.4,79,44,12,27.63,27.53,4,1,10,0.00
2013-9-20,82.2,65.9,53.2,61.4,55.6,47.3,87,71,45,27.71,27.61,3,0,9,0.00
2013-9-21,77.9,64.8,57.9,58.0,54.9,50.8,88,72,41,27.73,27.60,5,1,16,0.00
2013-9-22,82.5,64.4,51.2,53.0,42.8,36.4,89,51,20,27.70,27.61,3,1,8,0.00
2013-9-23,93.8,74.2,59.4,45.6,40.2,34.9,49,32,16,27.74,27.65,3,1,11,0.00
2013-9-24,90.7,71.5,56.8,46.0,38.4,31.5,56,32,15,27.75,27.65,4,1,12,0.00
2013-9-25,77.2,64.0,51.5,55.2,49.9,41.5,84,62,40,27.66,27.49,4,1,12,0.00
2013-9-26,72.6,61.1,51.8,48.6,35.8,27.1,66,41,19,27.75,27.55,6,1,15,0.00
2013-9-27,79.6,65.0,51.0,33.7,28.7,22.3,43,27,14,27.87,27.74,7,2,18,0.00
2013-9-28,90.2,68.2,52.2,35.2,28.8,23.1,45,25,11,27.90,27.78,2,0,10,0.00
2013-9-29,90.5,69.3,52.6,37.3,29.4,22.5,40,25,9,27.91,27.78,3,0,7,0.00
2013-9-30,93.2,71.0,54.0,45.4,36.3,30.6,45,30,12,27.83,27.66,5,1,12,0.00
2013-10-1,84.9,68.0,53.1,52.3,43.5,33.2,75,43,25,27.75,27.67,3,1,11,0.00
2013-10-2,80.7,64.1,51.9,57.5,52.5,47.6,89,69,38,27.78,27.67,4,0,8,0.00
2013-10-3,77.4,61.6,48.3,54.7,48.2,40.0,92,65,32,27.76,27.62,4,0,10,0.00
2013-10-4,77.7,67.7,55.8,39.9,20.8,12.5,55,18,10,27.91,27.72,10,4,28,0.00
2013-10-5,81.1,71.1,63.7,33.6,21.9,14.8,29,16,10,28.05,27.92,10,4,23,0.00
2013-10-6,89.7,73.8,62.3,29.0,19.6,13.5,20,13,7,27.95,27.80,4,1,13,0.00
2013-10-7,85.8,68.0,54.2,37.2,23.8,14.2,44,21,9,27.81,27.71,4,1,11,0.00
2013-10-8,74.9,59.6,47.8,52.0,39.6,27.3,83,50,28,27.75,27.61,5,1,11,0.00
2013-10-9,56.3,52.5,47.0,50.9,46.2,39.8,92,79,61,27.65,27.51,6,2,14,0.01
2013-10-10,66.0,51.7,39.1,47.3,42.4,36.7,92,73,44,27.89,27.64,4,0,10,0.00
2013-10-11,76.8,57.5,43.3,48.4,43.0,37.5,90,63,29,27.90,27.78,3,0,9,0.00
2013-10-12,78.4,59.8,46.6,45.1,41.0,37.2,78,54,24,27.82,27.70,3,0,12,0.00
2013-10-13,71.0,56.6,46.2,50.6,45.8,38.5,90,69,41,27.87,27.75,3,0,8,0.00
2013-10-14,78.7,63.5,46.6,44.5,36.5,29.1,79,41,19,27.92,27.78,6,1,15,0.00
2013-10-15,80.6,66.0,54.6,35.6,30.4,26.1,42,28,16,27.84,27.75,6,1,15,0.00
2013-10-16,80.3,65.1,52.2,35.4,26.2,20.5,51,24,14,27.95,27.84,5,1,15,0.00
2013-10-17,84.7,63.5,49.4,39.2,28.7,21.8,43,28,13,27.89,27.75,3,0,11,0.00
2013-10-18,86.7,67.5,53.0,36.0,28.8,20.5,46,26,11,27.87,27.78,3,1,12,0.00
2013-10-19,90.4,69.6,56.6,37.1,25.6,16.9,32,20,7,27.87,27.77,2,0,9,0.00
2013-10-20,87.4,66.0,51.6,44.4,32.3,23.2,52,31,13,27.82,27.70,3,0,7,0.00
2013-10-21,90.4,66.4,50.6,44.9,33.7,25.6,53,33,10,27.81,27.72,2,0,5,0.00
2013-10-22,88.1,67.7,53.5,37.9,28.5,20.9,44,25,10,27.83,27.71,3,0,13,0.00
2013-10-23,80.2,62.7,51.7,52.4,39.0,23.8,89,45,22,27.80,27.68,2,0,6,0.00
2013-10-24,76.5,58.9,46.8,53.8,49.7,43.3,92,74,41,27.88,27.77,1,0,8,0.00
2013-10-25,83.8,62.2,44.2,50.2,40.8,32.9,84,50,23,27.96,27.85,2,0,6,0.00
2013-10-26,90.1,68.1,52.7,42.0,32.0,26.2,45,28,11,27.93,27.80,2,0,6,0.00
2013-10-27,82.1,63.9,52.3,50.6,37.1,25.6,86,41,16,27.82,27.58,6,1,12,0.00
2013-10-28,61.2,54.1,50.7,50.5,44.1,37.5,84,70,43,27.76,27.56,8,3,15,0.00
2013-10-29,59.5,51.0,42.3,46.1,42.8,39.3,90,75,51,27.86,27.76,4,0,12,0.01
2013-10-30,72.1,54.1,41.9,40.6,35.9,30.0,87,55,24,27.93,27.83,5,0,11,0.00
2013-10-31,75.9,59.5,44.9,36.1,30.6,22.9,58,36,18,27.96,27.86,6,1,17,0.00
2013-11-1,80.6,65.6,52.4,33.9,29.0,25.4,42,26,16,27.98,27.82,4,1,14,0.00
2013-11-2,82.1,62.6,51.5,37.8,30.8,26.2,51,32,15,27.87,27.69,4,0,11,0.00
2013-11-3,73.7,55.6,44.1,50.1,39.4,27.7,83,56,34,27.75,27.63,3,0,10,0.00
2013-11-4,70.3,54.5,43.6,47.6,39.1,28.3,90,60,28,27.84,27.63,3,0,9,0.00
2013-11-5,68.1,58.2,43.2,34.5,18.9,7.0,71,24,12,28.04,27.83,9,3,17,0.00
2013-11-6,75.1,63.0,54.4,25.1,14.1,8.6,30,15,10,28.11,28.00,6,1,16,0.00
2013-11-7,82.1,66.0,54.3,30.2,20.5,11.5,37,18,11,28.01,27.85,2,0,11,0.00
2013-11-8,80.9,61.3,47.8,37.5,25.6,17.6,52,28,11,27.88,27.76,2,0,7,0.00
2013-11-9,79.0,58.3,44.3,35.6,28.6,24.2,60,35,16,27.94,27.83,2,0,8,0.00
2013-11-10,83.2,60.1,48.0,39.3,24.6,12.2,53,29,7,27.99,27.88,1,0,4,0.00
2013-11-11,83.5,66.0,49.9,31.9,25.8,19.4,34,22,13,27.99,27.87,2,0,12,0.00
2013-11-12,78.2,68.6,60.0,35.3,27.3,22.4,35,22,14,28.02,27.94,2,0,7,0.00
2013-11-13,85.0,70.5,58.4,31.7,25.2,20.1,36,19,11,27.95,27.80,4,1,10,0.00
2013-11-14,88.5,70.1,56.3,35.6,29.0,24.3,41,23,11,27.82,27.57,3,0,9,0.00
2013-11-15,68.2,57.0,46.5,50.2,42.8,29.5,81,60,37,27.59,27.48,3,0,12,0.00
2013-11-16,60.8,55.2,51.2,49.8,47.0,44.8,86,74,59,27.77,27.57,4,1,11,0.00
2013-11-17,66.5,53.6,43.6,48.3,44.0,40.0,88,71,47,27.94,27.76,2,0,7,0.00
2013-11-18,68.9,54.2,44.6,48.9,43.8,37.1,87,69,44,28.00,27.88,3,0,6,0.00
2013-11-19,64.8,53.9,47.4,50.4,47.3,44.8,93,79,54,27.93,27.77,2,0,5,0.00
2013-11-20,63.3,54.3,47.9,51.7,48.7,44.4,92,82,60,27.81,27.71,3,0,9,0.00
2013-11-21,63.5,54.0,47.0,54.2,49.3,41.0,96,85,61,27.77,27.64,3,0,9,0.01
2013-11-22,51.0,46.2,43.3,41.1,38.4,36.9,79,74,63,27.88,27.75,7,3,17,0.00
2013-11-23,54.4,47.7,43.6,40.8,38.6,37.3,81,71,59,28.00,27.87,5,2,13,0.00
2013-11-24,62.7,51.6,43.5,40.9,38.9,36.2,82,63,40,28.08,27.95,5,1,14,0.00
2013-11-25,72.8,55.4,44.5,40.1,36.7,33.2,73,52,24,28.12,28.02,5,0,11,0.00
2013-11-26,70.2,58.6,50.0,41.1,37.5,34.5,62,46,30,28.07,27.92,3,0,11,0.00
2013-11-27,69.2,58.1,51.0,40.8,38.4,35.5,64,49,33,27.92,27.74,3,0,10,0.00
2013-11-28,66.5,55.0,46.3,41.5,37.3,34.0,68,52,34,27.92,27.74,3,0,10,0.00
2013-11-29,55.5,52.8,48.8,50.3,41.9,36.6,84,67,52,28.06,27.91,2,0,8,0.01
2013-11-30,70.5,57.3,47.6,42.0,38.5,34.9,75,52,30,28.08,27.96,3,0,10,0.00
2013-12-1,72.2,59.0,49.0,35.5,32.5,27.4,54,38,23,28.12,27.99,6,1,14,0.00
2013-12-2,74.9,58.9,46.3,37.3,30.8,27.7,56,36,18,28.01,27.75,2,0,6,0.00
2013-12-3,65.7,51.9,40.9,49.1,39.0,29.5,83,63,40,27.75,27.55,5,1,11,0.00
2013-12-4,55.2,43.6,36.7,33.6,21.7,16.8,75,44,24,27.83,27.61,4,0,12,0.00
2013-12-5,55.0,41.0,32.4,28.7,22.4,15.7,69,50,22,27.98,27.82,2,0,7,0.00
2013-12-6,53.7,41.3,28.5,36.9,30.7,23.5,83,68,38,28.04,27.94,3,1,9,0.00
2013-12-7,47.2,41.8,33.0,41.3,33.3,21.2,86,72,52,27.99,27.82,5,1,16,0.00
2013-12-8,52.6,37.5,26.5,23.8,18.6,12.9,73,49,29,28.11,27.97,2,0,8,0.00
2013-12-9,48.7,41.6,35.0,14.3,2.1,-6.1,38,20,13,28.25,28.09,11,4,31,0.00
2013-12-10,55.2,44.8,38.1,22.8,4.0,-5.4,31,18,14,28.21,28.02,5,2,21,0.00
2013-12-11,61.2,50.5,44.1,28.1,11.7,5.1,31,21,17,28.10,28.02,5,1,16,0.00
2013-12-12,67.5,52.4,40.7,32.0,17.2,13.5,37,25,16,28.09,27.98,2,0,9,0.00
2013-12-13,68.1,49.8,35.5,33.7,19.0,12.5,52,31,14,28.11,27.98,2,0,8,0.00
2013-12-14,67.0,59.7,53.1,22.0,19.0,13.7,26,21,17,28.18,28.07,8,4,22,0.00
2013-12-15,71.4,60.8,53.4,25.0,20.6,17.7,27,21,15,28.16,28.01,7,2,17,0.00
2013-12-16,74.6,65.3,59.8,38.2,22.9,19.5,29,20,16,28.05,27.95,3,1,14,0.00
2013-12-17,75.6,66.2,59.4,38.1,26.0,21.7,28,22,17,28.00,27.85,4,1,13,0.00
2013-12-18,71.0,60.8,50.5,48.6,35.3,23.8,86,43,21,27.88,27.63,4,0,8,0.00
2013-12-19,51.8,46.4,40.5,44.7,41.7,36.4,92,83,74,27.68,27.54,3,1,13,0.01
2013-12-20,59.2,46.7,38.4,37.2,29.4,20.4,85,53,29,27.82,27.66,5,1,11,0.00
2013-12-21,60.9,45.2,34.5,43.1,31.7,19.0,81,60,48,27.96,27.78,2,0,5,0.00
2013-12-22,70.6,50.2,36.0,41.0,34.0,31.1,86,58,26,28.15,27.95,2,0,6,0.00
2013-12-23,67.8,56.9,45.7,39.7,31.9,29.4,54,39,28,28.19,28.09,5,2,14,0.00
2013-12-24,75.8,62.1,54.4,36.8,31.3,27.9,41,32,18,28.10,27.98,5,2,13,0.00
2013-12-25,69.7,62.3,59.0,34.8,21.8,7.7,35,22,12,28.10,28.02,7,3,20,0.00
2013-12-26,69.5,61.9,55.3,17.8,11.0,5.9,17,13,11,28.06,27.96,7,3,20,0.00
2013-12-27,75.1,61.3,54.1,33.3,13.9,6.8,27,16,10,28.05,27.91,2,0,12,0.00
2013-12-28,79.2,60.1,48.8,23.8,14.6,7.4,26,17,8,27.91,27.75,1,0,5,0.00
2013-12-29,67.3,60.0,52.2,16.4,9.5,-0.6,19,14,9,28.03,27.86,8,3,18,0.00
2013-12-30,75.4,56.8,45.8,22.0,8.8,-0.1,25,15,7,28.11,28.00,1,0,7,0.00
2013-12-31,76.5,55.9,43.3,23.4,15.3,10.4,28,21,11,28.06,27.92,1,0,4,0.00
2014-1-1,73.4,61.3,49.9,33.7,18.6,11.2,26,19,14,27.99,27.91,4,1,15,0.00
2014-1-2,74.8,62.4,53.2,29.6,24.1,19.8,33,23,17,27.98,27.85,3,1,12,0.00